FW4287 Weather Reports


time (UTC)temp
C
wind
direction
speed
KPH
gust
KPH
rain 1hr
cm
rain 24hr
cm
rain mn
cm
humidity
%
barometer
mb
20260505193147 18 357 12.9 20.9 0.00 0.00 0.00 66 1015.2
20260505184529 17 351 11.3 17.7 0.00 0.00 0.00 67 1015.3
20260505183030 17 1 9.7 16.1 0.00 0.00 0.00 68 1015.4
20260505180030 16 8 11.3 19.3 0.00 0.00 0.00 70 1015.4
20260505173029 16 11 9.7 19.3 0.00 0.00 0.00 71 1015.2
20260505171529 16 21 11.3 19.3 0.00 0.00 0.00 71 1015.1
20260505164530 16 359 9.7 16.1 0.00 0.00 0.00 71 1015.1
20260505163107 16 43 8.0 17.7 0.00 0.00 0.00 70 1015.0
20260505160108 16 44 4.8 12.9 0.00 0.00 0.00 68 1015.0
20260505153029 15 46 6.4 11.3 0.00 0.00 0.00 72 1015.0
20260505151607 16 28 3.2 8.0 0.00 0.00 0.00 69 1014.9
20260505150146 15 126 1.6 6.4 0.00 0.00 0.00 69 1014.8
20260505124530 13 171 8.0 16.1 0.00 0.00 0.00 78 1014.0
20260505123031 13 170 9.7 24.1 0.00 0.00 0.00 78 1013.9
20260505121605 13 177 9.7 19.3 0.00 0.00 0.00 79 1013.9
20260505120147 13 169 9.7 17.7 0.00 0.00 0.00 79 1013.9
20260505114529 13 171 9.7 22.5 0.00 0.00 0.00 79 1013.8
20260505113032 13 172 9.7 17.7 0.00 0.00 0.00 78 1013.8
20260505111531 13 170 9.7 22.5 0.00 0.00 0.00 78 1013.7
20260505101531 14 182 9.7 20.9 0.00 0.00 0.00 77 1013.3
20260505100031 14 177 11.3 27.4 0.00 0.00 0.00 76 1013.3
20260505094530 15 182 9.7 19.3 0.00 0.00 0.00 76 1013.1
20260505093032 15 183 11.3 20.9 0.00 0.00 0.00 76 1013.2
20260505091529 15 187 9.7 25.7 0.00 0.00 0.00 75 1013.0
20260505090028 15 182 11.3 22.5 0.00 0.00 0.00 75 1012.9
20260505080030 16 185 12.9 20.9 0.00 0.00 0.00 71 1012.7
20260505074531 16 186 12.9 22.5 0.00 0.00 0.00 71 1012.7
20260505073033 16 178 14.5 25.7 0.00 0.00 0.00 71 1012.7
20260505064605 16 181 9.7 17.7 0.00 0.00 0.00 71 1012.4
20260505061533 16 185 11.3 17.7 0.00 0.00 0.00 69 1012.5
20260505060029 16 171 12.9 22.5 0.00 0.00 0.00 68 1012.5
20260505054530 16 181 11.3 20.9 0.00 0.00 0.00 67 1012.5
20260505053031 17 180 11.3 22.5 0.00 0.00 0.00 65 1012.4
20260505051535 17 189 9.7 17.7 0.00 0.00 0.00 64 1012.3
20260505050107 17 183 12.9 24.1 0.00 0.00 0.00 62 1012.2
20260505041535 17 189 12.9 22.5 0.00 0.00 0.00 56 1011.8
20260505033030 18 183 12.9 20.9 0.00 0.00 0.00 52 1011.1
20260505030032 20 185 12.9 25.7 0.00 0.00 0.00 51 1010.6
20260505023107 21 168 16.1 25.7 0.00 0.00 0.00 49 1010.6
20260505021530 21 168 12.9 24.1 0.00 0.00 0.00 48 1010.5
20260505020106 22 165 12.9 24.1 0.00 0.00 0.00 46 1010.5
20260505014532 22 175 11.3 19.3 0.00 0.00 0.00 45 1010.3
20260505011531 23 199 12.9 27.4 0.00 0.00 0.00 41 1010.1
20260505010034 23 190 14.5 29.0 0.00 0.00 0.00 40 1010.1
20260505004530 24 213 14.5 25.7 0.00 0.00 0.00 38 1010.0
20260505003031 24 225 14.5 29.0 0.00 0.00 0.00 37 1010.0
20260505001537 25 228 16.1 27.4 0.00 0.00 0.00 37 1010.0
20260505000029 25 208 16.1 30.6 0.00 0.00 0.00 37 1010.0
20260504234604 25 224 16.1 27.4 0.00 0.00 0.00 36 1009.9
20260504233032 25 217 16.1 27.4 0.00 0.00 0.00 37 1009.9
20260504231604 26 207 16.1 30.6 0.00 0.00 0.00 37 1009.9
20260504224527 26 239 12.9 30.6 0.00 0.00 0.00 38 1010.0
20260504223147 26 299 3.2 16.1 0.00 0.00 0.00 41 1010.2
20260504221645 25 350 6.4 19.3 0.00 0.00 0.00 44 1010.2
20260504214526 24 4 11.3 19.3 0.00 0.00 0.00 45 1010.6
20260504213116 23 359 11.3 17.7 0.00 0.00 0.00 46 1010.7
20260504211646 23 1 9.7 17.7 0.00 0.00 0.00 46 1010.8
20260504204530 23 2 11.3 22.5 0.00 0.00 0.00 45 1011.1
20260504203032 23 354 11.3 24.1 0.00 0.00 0.00 46 1011.1
20260504201645 23 6 11.3 20.9 0.00 0.00 0.00 47 1011.3
20260504200029 23 3 12.9 20.9 0.00 0.00 0.00 48 1011.4